Location: Forst
(46.9333°N, 15.4333°E)
Time: 18:05:18
(UTC+00:00)

Tiangong - Pass Details

Date: 29 September 2021
Orbit: 382 x 385 km, 41.5° (Epoch: 18 October)

Event Time Altitude Azimuth Distance (km) Brightness Sun altitude
Exits shadow 04:15:15 - 237° (WSW) 1,575 3.6 -7.5°
Reaches altitude 10° 04:15:45 10° 233° (SW) 1,394 3.4 -7.4°
Maximum altitude 04:18:29 27° 173° (S) 761 2.6 -7.0°
Drops below altitude 10° 04:21:14 10° 112° (ESE) 1,395 5.1 -6.5°
Sets 04:23:28 0° 100° (E) 2,248 7.0 -6.1°
